Regional Weather Roundup
Issued by NWS State College, PA

Home | Current Version | Previous Version | Graphics & Text | Print | Product List | Glossary Off
Versions: 1 2 3 4 5 6 7 8 9 10 11 12 13 14 15 16 17 18 19 20 21 22 23 24 25 26 27 28 29 30 31 32 33 34 35 36 37 38 39 40 41 42 43 44 45 46 47 48 49 50

000
ASUS41 KCTP 242110
RWRCTP

REGIONAL WEATHER ROUNDUP
NATIONAL WEATHER SERVICE STATE COLLEGE PA
500 PM EDT MON APR 24 2017

Note: "fair" indicates few or no clouds below 12,000 feet with no
significant weather and/or obstructions to visibility.

* = STATION THAT DOES NOT REPORT PRECIPITATION /E.G. RAIN...SNOW...ETC/
    THUNDER OR FOG.

PAZ002>004-007>009-013>016-020>023-029>032-242200-
WESTERN PENNSYLVANIA

CITY           SKY/WX    TMP DP  RH WIND       PRES   REMARKS
ERIE           SUNNY     54  44  69 NE18G29   29.99F
MEADVILLE      SUNNY     72  24  16 SE9G20    29.96F
FRANKLIN*      SUNNY     66  34  30 SE17G26   30.00F
NEW CASTLE     CLOUDY    65  43  44 E12G18    30.00S
BEAVER COUNTY  CLOUDY    61  41  48 SE13      29.99F
BUTLER*        CLOUDY    59  43  55 E14       30.01F
PITTSBURGH INT CLOUDY    59  41  51 E16G22    30.00S
PITTSBURGH     LGT RAIN  57  40  52 SE12      30.00S
INDIANA*       CLOUDY    59  39  47 E10G22    30.05F
LATROBE        LGT RAIN  54  45  71 E12G21    30.02F
WASHINGTON CO* CLOUDY    52  46  82 E9        30.02S
$$

PAZ004>006-010>012-017>019-024>028-033>037-041-042-045-046-049>053-242200-
CENTRAL PENNSYLVANIA

CITY           SKY/WX    TMP DP  RH WIND       PRES   REMARKS
BRADFORD       SUNNY     69  25  19 SE8G23    30.01F
DUBOIS         CLOUDY    61  33  35 SE14G20   30.02F
CLEARFIELD     CLOUDY    63  34  33 SE9G18    30.05F
JOHNSTOWN      CLOUDY    50  42  74 E8        30.02F
ALTOONA        CLOUDY    58  40  51 NE9       30.05F
STATE COLLEGE  CLOUDY    59  37  44 E9G16     30.07F
WILLIAMSPORT   CLOUDY    66  33  29 SE12      30.05F
SELINSGROVE    CLOUDY    63  36  36 E10       30.07F
FT INDIANTOWN  CLOUDY    59  48  67 E9        30.08F
CAPITAL CITY   LGT RAIN  58  49  72 E9        30.07F
HARRISBURG     CLOUDY    59  48  67 E12       30.06F
YORK           CLOUDY    58  40  51 E13       30.06S
$$

PAZ038>040-043-044-047-048-054-055-060>062-067>071-242200-
EASTERN PENNSYLVANIA

CITY           SKY/WX    TMP DP  RH WIND       PRES   REMARKS
SCRANTON       CLOUDY    66  33  29 SE6       30.09R
MOUNT POCONO   CLOUDY    58  35  42 SE10      30.11F
ALLENTOWN      CLOUDY    60  42  51 E10       30.11F
QUAKERTOWN*    MOCLDY    55  43  62 NE6       30.11F
READING        CLOUDY    57  45  64 E6        30.09F
LANCASTER      LGT RAIN  57  45  64 NE14      30.06F
COATESVILLE    CLOUDY    57  41  54 NE6       30.09S
POTTSTOWN      CLOUDY    57  37  47 E7        30.11S
BLUE BELL      CLOUDY    54  41  62 NE7       30.11F
DOYLESTOWN     CLOUDY    56  36  47 VRB6      30.11S
WILLOW GROVE   NOT AVBL
NORTH PHILA    CLOUDY    59  42  53 E14       30.12S
PHILADELPHIA   CLOUDY    58  43  57 E14       30.09F
$$




USA.gov is the U.S. government's official web portal to all federal, state and local government web resources and services.